Year,Month,Day,Hour,Minute,Value (Times are PST for temperature in C)
2015,08,24,00,00,15.40
2015,08,24,00,01,15.40
2015,08,24,00,02,15.30
2015,08,24,00,03,15.30
2015,08,24,00,04,15.30
2015,08,24,00,05,15.20
2015,08,24,00,06,15.20
2015,08,24,00,07,15.20
2015,08,24,00,08,15.10
2015,08,24,00,09,15.00
2015,08,24,00,10,14.90
2015,08,24,00,11,14.80
2015,08,24,00,12,14.70
2015,08,24,00,13,14.70
2015,08,24,00,14,14.60
2015,08,24,00,15,14.50
2015,08,24,00,16,14.50
2015,08,24,00,17,14.40
2015,08,24,00,18,14.40
2015,08,24,00,19,14.30
2015,08,24,00,20,14.30
2015,08,24,00,21,14.30
2015,08,24,00,22,14.20
2015,08,24,00,23,14.20
2015,08,24,00,24,14.20
2015,08,24,00,25,14.10
2015,08,24,00,26,14.10
2015,08,24,00,27,14.10
2015,08,24,00,28,14.00
2015,08,24,00,29,14.00
2015,08,24,00,30,13.90
2015,08,24,00,31,13.90
2015,08,24,00,32,13.90
2015,08,24,00,33,13.80
2015,08,24,00,34,13.80
2015,08,24,00,35,13.80
2015,08,24,00,36,13.70
2015,08,24,00,37,13.70
2015,08,24,00,38,13.60
2015,08,24,00,39,13.60
2015,08,24,00,40,13.60
2015,08,24,00,41,13.60
2015,08,24,00,42,13.50
2015,08,24,00,43,13.50
2015,08,24,00,44,13.50
2015,08,24,00,45,13.40
2015,08,24,00,46,13.40
2015,08,24,00,47,13.30
2015,08,24,00,48,13.30
2015,08,24,00,49,13.20
2015,08,24,00,50,13.10
2015,08,24,00,51,13.10
2015,08,24,00,52,13.00
2015,08,24,00,53,13.00
2015,08,24,00,54,12.90
2015,08,24,00,55,12.90
2015,08,24,00,56,12.90
2015,08,24,00,57,12.80
2015,08,24,00,58,12.80
2015,08,24,00,59,12.70
2015,08,24,01,00,12.70
2015,08,24,01,01,12.70
2015,08,24,01,02,12.60
2015,08,24,01,03,12.60
2015,08,24,01,04,12.60
2015,08,24,01,05,12.50
2015,08,24,01,06,12.50
2015,08,24,01,07,12.40
2015,08,24,01,08,12.40
2015,08,24,01,09,12.40
2015,08,24,01,10,12.40
2015,08,24,01,11,12.30
2015,08,24,01,12,12.30
2015,08,24,01,13,12.30
2015,08,24,01,14,12.30
2015,08,24,01,15,12.30
2015,08,24,01,16,12.20
2015,08,24,01,17,12.20
2015,08,24,01,18,12.20
2015,08,24,01,19,12.20
2015,08,24,01,20,12.20
2015,08,24,01,21,12.20
2015,08,24,01,22,12.10
2015,08,24,01,23,12.10
2015,08,24,01,24,12.10
2015,08,24,01,25,12.10
2015,08,24,01,26,12.00
2015,08,24,01,27,12.00
2015,08,24,01,28,11.90
2015,08,24,01,29,11.90
2015,08,24,01,30,11.90
2015,08,24,01,31,11.80
2015,08,24,01,32,11.80
2015,08,24,01,33,11.80
2015,08,24,01,34,11.70
2015,08,24,01,35,11.70
2015,08,24,01,36,11.70
2015,08,24,01,37,11.70
2015,08,24,01,38,11.60
2015,08,24,01,39,11.60
2015,08,24,01,40,11.60
2015,08,24,01,41,11.60
2015,08,24,01,42,11.50
2015,08,24,01,43,11.50
2015,08,24,01,44,11.50
2015,08,24,01,45,11.40
2015,08,24,01,46,11.40
2015,08,24,01,47,11.40
2015,08,24,01,48,11.40
2015,08,24,01,49,11.30
2015,08,24,01,50,11.30
2015,08,24,01,51,11.30
2015,08,24,01,52,11.30
2015,08,24,01,53,11.20
2015,08,24,01,54,11.20
2015,08,24,01,55,11.20
2015,08,24,01,56,11.20
2015,08,24,01,57,11.20
2015,08,24,01,58,11.20
2015,08,24,01,59,11.20
2015,08,24,02,00,11.20
2015,08,24,02,01,11.20
2015,08,24,02,02,11.20
2015,08,24,02,03,11.10
2015,08,24,02,04,11.20
2015,08,24,02,05,11.20
2015,08,24,02,06,11.20
2015,08,24,02,07,11.20
2015,08,24,02,08,11.10
2015,08,24,02,09,11.10
2015,08,24,02,10,11.10
2015,08,24,02,11,11.10
2015,08,24,02,12,11.00
2015,08,24,02,13,11.00
2015,08,24,02,14,10.90
2015,08,24,02,15,10.90
2015,08,24,02,16,10.90
2015,08,24,02,17,10.80
2015,08,24,02,18,10.80
2015,08,24,02,19,10.80
2015,08,24,02,20,10.80
2015,08,24,02,21,10.80
2015,08,24,02,22,10.80
2015,08,24,02,23,10.80
2015,08,24,02,24,10.80
2015,08,24,02,25,10.80
2015,08,24,02,26,10.70
2015,08,24,02,27,10.70
2015,08,24,02,28,10.70
2015,08,24,02,29,10.70
2015,08,24,02,30,10.70
2015,08,24,02,31,10.80
2015,08,24,02,32,10.80
2015,08,24,02,33,10.70
2015,08,24,02,34,10.70
2015,08,24,02,35,10.70
2015,08,24,02,36,10.70
2015,08,24,02,37,10.70
2015,08,24,02,38,10.70
2015,08,24,02,39,10.70
2015,08,24,02,40,10.70
2015,08,24,02,41,10.70
2015,08,24,02,42,10.70
2015,08,24,02,43,10.70
2015,08,24,02,44,10.60
2015,08,24,02,45,10.60
2015,08,24,02,46,10.60
2015,08,24,02,47,10.60
2015,08,24,02,48,10.60
2015,08,24,02,49,10.60
2015,08,24,02,50,10.50
2015,08,24,02,51,10.50
2015,08,24,02,52,10.50
2015,08,24,02,53,10.40
2015,08,24,02,54,10.40
2015,08,24,02,55,10.30
2015,08,24,02,56,10.30
2015,08,24,02,57,10.30
2015,08,24,02,58,10.30
2015,08,24,02,59,10.20
2015,08,24,03,00,10.20
2015,08,24,03,01,10.10
2015,08,24,03,02,10.10
2015,08,24,03,03,10.10
2015,08,24,03,04,10.10
2015,08,24,03,05,10.00
2015,08,24,03,06,10.00
2015,08,24,03,07,10.00
2015,08,24,03,08,9.90
2015,08,24,03,09,9.90
2015,08,24,03,10,9.90
2015,08,24,03,11,9.90
2015,08,24,03,12,9.90
2015,08,24,03,13,9.90
2015,08,24,03,14,9.80
2015,08,24,03,15,9.80
2015,08,24,03,16,9.80
2015,08,24,03,17,9.80
2015,08,24,03,18,9.80
2015,08,24,03,19,9.80
2015,08,24,03,20,9.80
2015,08,24,03,21,9.70
2015,08,24,03,22,9.70
2015,08,24,03,23,9.70
2015,08,24,03,24,9.70
2015,08,24,03,25,9.70
2015,08,24,03,26,9.60
2015,08,24,03,27,9.60
2015,08,24,03,28,9.60
2015,08,24,03,29,9.60
2015,08,24,03,30,9.60
2015,08,24,03,31,9.60
2015,08,24,03,32,9.60
2015,08,24,03,33,9.60
2015,08,24,03,34,9.50
2015,08,24,03,35,9.50
2015,08,24,03,36,9.50
2015,08,24,03,37,9.40
2015,08,24,03,38,9.40
2015,08,24,03,39,9.40
2015,08,24,03,40,9.40
2015,08,24,03,41,9.30
2015,08,24,03,42,9.30
2015,08,24,03,43,9.30
2015,08,24,03,44,9.30
2015,08,24,03,45,9.30
2015,08,24,03,46,9.30
2015,08,24,03,47,9.30
2015,08,24,03,48,9.30
2015,08,24,03,49,9.30
2015,08,24,03,50,9.30
2015,08,24,03,51,9.30
2015,08,24,03,52,9.30
2015,08,24,03,53,9.30
2015,08,24,03,54,9.30
2015,08,24,03,55,9.30
2015,08,24,03,56,9.30
2015,08,24,03,57,9.30
2015,08,24,03,58,9.30
2015,08,24,03,59,9.30
2015,08,24,04,00,9.30
2015,08,24,04,01,9.30
2015,08,24,04,02,9.30
2015,08,24,04,03,9.30
2015,08,24,04,04,9.30
2015,08,24,04,05,9.30
2015,08,24,04,06,9.30
2015,08,24,04,07,9.30
2015,08,24,04,08,9.20
2015,08,24,04,09,9.20
2015,08,24,04,10,9.20
2015,08,24,04,11,9.20
2015,08,24,04,12,9.20
2015,08,24,04,13,9.20
2015,08,24,04,14,9.20
2015,08,24,04,15,9.20
2015,08,24,04,16,9.20
2015,08,24,04,17,9.20
2015,08,24,04,18,9.20
2015,08,24,04,19,9.10
2015,08,24,04,20,9.10
2015,08,24,04,21,9.10
2015,08,24,04,22,9.10
2015,08,24,04,23,9.10
2015,08,24,04,24,9.10
2015,08,24,04,25,9.10
2015,08,24,04,26,9.10
2015,08,24,04,27,9.10
2015,08,24,04,28,9.10
2015,08,24,04,29,9.10
2015,08,24,04,30,9.10
2015,08,24,04,31,9.10
2015,08,24,04,32,9.10
2015,08,24,04,33,9.10
2015,08,24,04,34,9.00
2015,08,24,04,35,9.00
2015,08,24,04,36,9.00
2015,08,24,04,37,8.90
2015,08,24,04,38,8.90
2015,08,24,04,39,8.90
2015,08,24,04,40,8.80
2015,08,24,04,41,8.80
2015,08,24,04,42,8.80
2015,08,24,04,43,8.80
2015,08,24,04,44,8.80
2015,08,24,04,45,8.80
2015,08,24,04,46,8.80
2015,08,24,04,47,8.80
2015,08,24,04,48,8.70
2015,08,24,04,49,8.70
2015,08,24,04,50,8.70
2015,08,24,04,51,8.70
2015,08,24,04,52,8.70
2015,08,24,04,53,8.70
2015,08,24,04,54,8.70
2015,08,24,04,55,8.70
2015,08,24,04,56,8.70
2015,08,24,04,57,8.70
2015,08,24,04,58,8.70
2015,08,24,04,59,8.80
2015,08,24,05,00,8.80
2015,08,24,05,01,8.80
2015,08,24,05,02,8.80
2015,08,24,05,03,8.90
2015,08,24,05,04,8.90
2015,08,24,05,05,8.90
2015,08,24,05,06,8.90
2015,08,24,05,07,9.00
2015,08,24,05,08,9.00
2015,08,24,05,09,9.00
2015,08,24,05,10,9.00
2015,08,24,05,11,9.00
2015,08,24,05,12,9.00
2015,08,24,05,13,9.00
2015,08,24,05,14,9.00
2015,08,24,05,15,9.00
2015,08,24,05,16,9.00
2015,08,24,05,17,9.00
2015,08,24,05,18,9.00
2015,08,24,05,19,9.00
2015,08,24,05,20,9.00
2015,08,24,05,21,9.10
2015,08,24,05,22,9.10
2015,08,24,05,23,9.10
2015,08,24,05,24,9.10
2015,08,24,05,25,9.10
2015,08,24,05,26,9.10
2015,08,24,05,27,9.10
2015,08,24,05,28,9.10
2015,08,24,05,29,9.10
2015,08,24,05,30,9.10
2015,08,24,05,31,9.10
2015,08,24,05,32,9.10
2015,08,24,05,33,9.10
2015,08,24,05,34,9.10
2015,08,24,05,35,9.10
2015,08,24,05,36,9.00
2015,08,24,05,37,9.00
2015,08,24,05,38,9.00
2015,08,24,05,39,9.00
2015,08,24,05,40,8.90
2015,08,24,05,41,8.90
2015,08,24,05,42,8.90
2015,08,24,05,43,8.90
2015,08,24,05,44,8.90
2015,08,24,05,45,8.90
2015,08,24,05,46,8.90
2015,08,24,05,47,8.90
2015,08,24,05,48,8.90
2015,08,24,05,49,8.90
2015,08,24,05,50,8.90
2015,08,24,05,51,8.80
2015,08,24,05,52,8.80
2015,08,24,05,53,8.80
2015,08,24,05,54,8.80
2015,08,24,05,55,8.80
2015,08,24,05,56,8.80
2015,08,24,05,57,8.80
2015,08,24,05,58,8.80
2015,08,24,05,59,8.80
2015,08,24,06,00,8.80
2015,08,24,06,01,8.80
2015,08,24,06,02,8.80
2015,08,24,06,03,8.80
2015,08,24,06,04,8.70
2015,08,24,06,05,8.70
2015,08,24,06,06,8.70
2015,08,24,06,07,8.70
2015,08,24,06,08,8.70
2015,08,24,06,09,8.70
2015,08,24,06,10,8.70
2015,08,24,06,11,8.70
2015,08,24,06,12,8.70
2015,08,24,06,13,8.70
2015,08,24,06,14,8.70
2015,08,24,06,15,8.70
2015,08,24,06,16,8.70
2015,08,24,06,17,8.70
2015,08,24,06,18,8.70
2015,08,24,06,19,8.70
2015,08,24,06,20,8.70
2015,08,24,06,21,8.70
2015,08,24,06,22,8.70
2015,08,24,06,23,8.70
2015,08,24,06,24,8.80
2015,08,24,06,25,8.80
2015,08,24,06,26,8.80
2015,08,24,06,27,8.90
2015,08,24,06,28,8.90
2015,08,24,06,29,8.90
2015,08,24,06,30,8.90
2015,08,24,06,31,8.90
2015,08,24,06,32,8.90
2015,08,24,06,33,8.90
2015,08,24,06,34,8.90
2015,08,24,06,35,8.90
2015,08,24,06,36,8.90
2015,08,24,06,37,8.90
2015,08,24,06,38,8.90
2015,08,24,06,39,8.90
2015,08,24,06,40,8.90
2015,08,24,06,41,9.00
2015,08,24,06,42,9.00
2015,08,24,06,43,9.00
2015,08,24,06,44,9.00
2015,08,24,06,45,9.10
2015,08,24,06,46,9.10
2015,08,24,06,47,9.10
2015,08,24,06,48,9.10
2015,08,24,06,49,9.10
2015,08,24,06,50,9.10
2015,08,24,06,51,9.10
2015,08,24,06,52,9.10
2015,08,24,06,53,9.10
2015,08,24,06,54,9.20
2015,08,24,06,55,9.20
2015,08,24,06,56,9.20
2015,08,24,06,57,9.20
2015,08,24,06,58,9.20
2015,08,24,06,59,9.20
2015,08,24,07,00,9.20
2015,08,24,07,01,9.30
2015,08,24,07,02,9.30
2015,08,24,07,03,9.30
2015,08,24,07,04,9.30
2015,08,24,07,05,9.40
2015,08,24,07,06,9.40
2015,08,24,07,07,9.40
2015,08,24,07,08,9.50
2015,08,24,07,09,9.50
2015,08,24,07,10,9.50
2015,08,24,07,11,9.60
2015,08,24,07,12,9.60
2015,08,24,07,13,9.70
2015,08,24,07,14,9.70
2015,08,24,07,15,9.70
2015,08,24,07,16,9.80
2015,08,24,07,17,9.80
2015,08,24,07,18,9.90
2015,08,24,07,19,9.90
2015,08,24,07,20,10.00
2015,08,24,07,21,10.00
2015,08,24,07,22,10.10
2015,08,24,07,23,10.10
2015,08,24,07,24,10.20
2015,08,24,07,25,10.20
2015,08,24,07,26,10.30
2015,08,24,07,27,10.30
2015,08,24,07,28,10.30
2015,08,24,07,29,10.40
2015,08,24,07,30,10.40
2015,08,24,07,31,10.50
2015,08,24,07,32,10.60
2015,08,24,07,33,10.60
2015,08,24,07,34,10.70
2015,08,24,07,35,10.80
2015,08,24,07,36,10.80
2015,08,24,07,37,10.90
2015,08,24,07,38,11.00
2015,08,24,07,39,11.00
2015,08,24,07,40,11.10
2015,08,24,07,41,11.20
2015,08,24,07,42,11.30
2015,08,24,07,43,11.40
2015,08,24,07,44,11.50
2015,08,24,07,45,11.60
2015,08,24,07,46,11.70
2015,08,24,07,47,11.80
2015,08,24,07,48,11.90
2015,08,24,07,49,12.00
2015,08,24,07,50,12.10
2015,08,24,07,51,12.20
2015,08,24,07,52,12.30
2015,08,24,07,53,12.40
2015,08,24,07,54,12.40
2015,08,24,07,55,12.50
2015,08,24,07,56,12.60
2015,08,24,07,57,12.70
2015,08,24,07,58,12.80
2015,08,24,07,59,12.90
2015,08,24,08,00,13.00
2015,08,24,08,01,13.00
2015,08,24,08,02,13.10
2015,08,24,08,03,13.20
2015,08,24,08,04,13.20
2015,08,24,08,05,13.30
2015,08,24,08,06,13.30
2015,08,24,08,07,13.40
2015,08,24,08,08,13.40
2015,08,24,08,09,13.50
2015,08,24,08,10,13.60
2015,08,24,08,11,13.60
2015,08,24,08,12,13.60
2015,08,24,08,13,13.70
2015,08,24,08,14,13.70
2015,08,24,08,15,13.80
2015,08,24,08,16,13.80
2015,08,24,08,17,13.80
2015,08,24,08,18,13.80
2015,08,24,08,19,13.90
2015,08,24,08,20,13.90
2015,08,24,08,21,13.90
2015,08,24,08,22,13.90
2015,08,24,08,23,13.90
2015,08,24,08,24,14.00
2015,08,24,08,25,14.00
2015,08,24,08,26,14.10
2015,08,24,08,27,14.10
2015,08,24,08,28,14.10
2015,08,24,08,29,14.20
2015,08,24,08,30,14.20
2015,08,24,08,31,14.30
2015,08,24,08,32,14.40
2015,08,24,08,33,14.40
2015,08,24,08,34,14.50
2015,08,24,08,35,14.60
2015,08,24,08,36,14.60
2015,08,24,08,37,14.70
2015,08,24,08,38,14.80
2015,08,24,08,39,14.80
2015,08,24,08,40,14.90
2015,08,24,08,41,14.90
2015,08,24,08,42,15.00
2015,08,24,08,43,15.00
2015,08,24,08,44,15.10
2015,08,24,08,45,15.10
2015,08,24,08,46,15.20
2015,08,24,08,47,15.30
2015,08,24,08,48,15.30
2015,08,24,08,49,15.40
2015,08,24,08,50,15.50
2015,08,24,08,51,15.50
2015,08,24,08,52,15.60
2015,08,24,08,53,15.60
2015,08,24,08,54,15.60
2015,08,24,08,55,15.60
2015,08,24,08,56,15.70
2015,08,24,08,57,15.70
2015,08,24,08,58,15.80
2015,08,24,08,59,15.80
2015,08,24,09,00,15.90
2015,08,24,09,01,15.90
2015,08,24,09,02,16.00
2015,08,24,09,03,16.00
2015,08,24,09,04,16.00
2015,08,24,09,05,16.00
2015,08,24,09,06,16.00
2015,08,24,09,07,16.00
2015,08,24,09,08,16.00
2015,08,24,09,09,15.90
2015,08,24,09,10,15.90
2015,08,24,09,11,15.90
2015,08,24,09,12,15.90
2015,08,24,09,13,15.90
2015,08,24,09,14,15.90
2015,08,24,09,15,15.90
2015,08,24,09,16,16.00
2015,08,24,09,17,16.00
2015,08,24,09,18,16.00
2015,08,24,09,19,16.00
2015,08,24,09,20,16.10
2015,08,24,09,21,16.10
2015,08,24,09,22,16.10
2015,08,24,09,23,16.10
2015,08,24,09,24,16.20
2015,08,24,09,25,16.20
2015,08,24,09,26,16.20
2015,08,24,09,27,16.30
2015,08,24,09,28,16.30
2015,08,24,09,29,16.40
2015,08,24,09,30,16.40
2015,08,24,09,31,16.50
2015,08,24,09,32,16.50
2015,08,24,09,33,16.60
2015,08,24,09,34,16.70
2015,08,24,09,35,16.70
2015,08,24,09,36,16.80
2015,08,24,09,37,16.80
2015,08,24,09,38,16.90
2015,08,24,09,39,16.90
2015,08,24,09,40,17.00
2015,08,24,09,41,17.00
2015,08,24,09,42,17.10
2015,08,24,09,43,17.10
2015,08,24,09,44,17.10
2015,08,24,09,45,17.10
2015,08,24,09,46,17.20
2015,08,24,09,47,17.20
2015,08,24,09,48,17.20
2015,08,24,09,49,17.20
2015,08,24,09,50,17.30
2015,08,24,09,51,17.30
2015,08,24,09,52,17.30
2015,08,24,09,53,17.30
2015,08,24,09,54,17.40
2015,08,24,09,55,17.40
2015,08,24,09,56,17.40
2015,08,24,09,57,17.40
2015,08,24,09,58,17.40
2015,08,24,09,59,17.50
2015,08,24,10,00,17.60
2015,08,24,10,01,17.60
2015,08,24,10,02,17.70
2015,08,24,10,03,17.70
2015,08,24,10,04,17.80
2015,08,24,10,05,17.90
2015,08,24,10,06,18.00
2015,08,24,10,07,18.00
2015,08,24,10,08,18.10
2015,08,24,10,09,18.20
2015,08,24,10,10,18.20
2015,08,24,10,11,18.30
2015,08,24,10,12,18.30
2015,08,24,10,13,18.30
2015,08,24,10,14,18.40
2015,08,24,10,15,18.40
2015,08,24,10,16,18.50
2015,08,24,10,17,18.60
2015,08,24,10,18,18.50
2015,08,24,10,19,18.50
2015,08,24,10,20,18.40
2015,08,24,10,21,18.40
2015,08,24,10,22,18.40
2015,08,24,10,23,18.50
2015,08,24,10,24,18.60
2015,08,24,10,25,18.70
2015,08,24,10,26,18.70
2015,08,24,10,27,18.80
2015,08,24,10,28,19.00
2015,08,24,10,29,19.10
2015,08,24,10,30,19.10
2015,08,24,10,31,19.20
2015,08,24,10,32,19.20
2015,08,24,10,33,19.20
2015,08,24,10,34,19.20
2015,08,24,10,35,19.10
2015,08,24,10,36,19.00
2015,08,24,10,37,18.90
2015,08,24,10,38,18.80
2015,08,24,10,39,18.80
2015,08,24,10,40,18.70
2015,08,24,10,41,18.60
2015,08,24,10,42,18.60
2015,08,24,10,43,18.60
2015,08,24,10,44,18.60
2015,08,24,10,45,18.70
2015,08,24,10,46,18.70
2015,08,24,10,47,18.70
2015,08,24,10,48,18.80
2015,08,24,10,49,18.80
2015,08,24,10,50,18.90
2015,08,24,10,51,18.90
2015,08,24,10,52,19.00
2015,08,24,10,53,19.00
2015,08,24,10,54,19.00
2015,08,24,10,55,19.00
2015,08,24,10,56,19.10
2015,08,24,10,57,19.20
2015,08,24,10,58,19.30
2015,08,24,10,59,19.30
2015,08,24,11,00,19.30
2015,08,24,11,01,19.30
2015,08,24,11,02,19.30
2015,08,24,11,03,19.30
2015,08,24,11,04,19.20
2015,08,24,11,05,19.20
2015,08,24,11,06,19.20
2015,08,24,11,07,19.30
2015,08,24,11,08,19.30
2015,08,24,11,09,19.20
2015,08,24,11,10,19.10
2015,08,24,11,11,19.00
2015,08,24,11,12,19.00
2015,08,24,11,13,19.00
2015,08,24,11,14,19.10
2015,08,24,11,15,19.00
2015,08,24,11,16,19.00
2015,08,24,11,17,18.90
2015,08,24,11,18,18.90
2015,08,24,11,19,18.90
2015,08,24,11,20,18.90
2015,08,24,11,21,19.00
2015,08,24,11,22,19.00
2015,08,24,11,23,19.00
2015,08,24,11,24,19.00
2015,08,24,11,25,19.00
2015,08,24,11,26,19.00
2015,08,24,11,27,19.00
2015,08,24,11,28,19.00
2015,08,24,11,29,18.90
2015,08,24,11,30,18.90
2015,08,24,11,31,18.90
2015,08,24,11,32,18.90
2015,08,24,11,33,18.90
2015,08,24,11,34,18.90
2015,08,24,11,35,18.80
2015,08,24,11,36,18.80
2015,08,24,11,37,18.90
2015,08,24,11,38,18.90
2015,08,24,11,39,19.00
2015,08,24,11,40,19.10
2015,08,24,11,41,19.10
2015,08,24,11,42,19.20
2015,08,24,11,43,19.10
2015,08,24,11,44,19.10
2015,08,24,11,45,19.00
2015,08,24,11,46,19.00
2015,08,24,11,47,19.10
2015,08,24,11,48,19.10
2015,08,24,11,49,19.20
2015,08,24,11,50,19.30
2015,08,24,11,51,19.30
2015,08,24,11,52,19.20
2015,08,24,11,53,19.20
2015,08,24,11,54,19.20
2015,08,24,11,55,19.20
2015,08,24,11,56,19.10
2015,08,24,11,57,19.10
2015,08,24,11,58,19.10
2015,08,24,11,59,19.10
2015,08,24,12,00,19.20
2015,08,24,12,01,19.30
2015,08,24,12,02,19.30
2015,08,24,12,03,19.30
2015,08,24,12,04,19.30
2015,08,24,12,05,19.30
2015,08,24,12,06,19.30
2015,08,24,12,07,19.30
2015,08,24,12,08,19.30
2015,08,24,12,09,19.40
2015,08,24,12,10,19.50
2015,08,24,12,11,19.60
2015,08,24,12,12,19.80
2015,08,24,12,13,19.80
2015,08,24,12,14,19.80
2015,08,24,12,15,19.80
2015,08,24,12,16,19.70
2015,08,24,12,17,19.70
2015,08,24,12,18,19.60
2015,08,24,12,19,19.60
2015,08,24,12,20,19.60
2015,08,24,12,21,19.70
2015,08,24,12,22,19.70
2015,08,24,12,23,19.60
2015,08,24,12,24,19.60
2015,08,24,12,25,19.60
2015,08,24,12,26,19.70
2015,08,24,12,27,19.70
2015,08,24,12,28,19.70
2015,08,24,12,29,19.70
2015,08,24,12,30,19.70
2015,08,24,12,31,19.70
2015,08,24,12,32,19.70
2015,08,24,12,33,19.70
2015,08,24,12,34,19.60
2015,08,24,12,35,19.70
2015,08,24,12,36,19.70
2015,08,24,12,37,19.90
2015,08,24,12,38,20.00
2015,08,24,12,39,20.00
2015,08,24,12,40,20.10
2015,08,24,12,41,20.10
2015,08,24,12,42,20.10
2015,08,24,12,43,20.20
2015,08,24,12,44,20.20
2015,08,24,12,45,20.30
2015,08,24,12,46,20.30
2015,08,24,12,47,20.40
2015,08,24,12,48,20.40
2015,08,24,12,49,20.40
2015,08,24,12,50,20.50
2015,08,24,12,51,20.50
2015,08,24,12,52,20.60
2015,08,24,12,53,20.70
2015,08,24,12,54,20.80
2015,08,24,12,55,20.90
2015,08,24,12,56,20.90
2015,08,24,12,57,20.90
2015,08,24,12,58,20.90
2015,08,24,12,59,20.90
2015,08,24,13,00,20.80
2015,08,24,13,01,20.70
2015,08,24,13,02,20.60
2015,08,24,13,03,20.60
2015,08,24,13,04,20.60
2015,08,24,13,05,20.70
2015,08,24,13,06,20.80
2015,08,24,13,07,20.70
2015,08,24,13,08,20.60
2015,08,24,13,09,20.60
2015,08,24,13,10,20.60
2015,08,24,13,11,20.60
2015,08,24,13,12,20.70
2015,08,24,13,13,20.80
2015,08,24,13,14,20.90
2015,08,24,13,15,20.90
2015,08,24,13,16,20.90
2015,08,24,13,17,20.90
2015,08,24,13,18,20.90
2015,08,24,13,19,20.90
2015,08,24,13,20,21.00
2015,08,24,13,21,21.00
2015,08,24,13,22,21.00
2015,08,24,13,23,21.00
2015,08,24,13,24,20.90
2015,08,24,13,25,20.90
2015,08,24,13,26,20.90
2015,08,24,13,27,20.80
2015,08,24,13,28,20.70
2015,08,24,13,29,20.70
2015,08,24,13,30,20.80
2015,08,24,13,31,20.80
2015,08,24,13,32,20.70
2015,08,24,13,33,20.70
2015,08,24,13,34,20.70
2015,08,24,13,35,20.70
2015,08,24,13,36,20.80
2015,08,24,13,37,20.80
2015,08,24,13,38,20.80
2015,08,24,13,39,20.80
2015,08,24,13,40,20.80
2015,08,24,13,41,20.80
2015,08,24,13,42,20.80
2015,08,24,13,43,20.80
2015,08,24,13,44,20.90
2015,08,24,13,45,20.90
2015,08,24,13,46,20.90
2015,08,24,13,47,20.90
2015,08,24,13,48,21.00
2015,08,24,13,49,21.10
2015,08,24,13,50,21.20
2015,08,24,13,51,21.40
2015,08,24,13,52,21.50
2015,08,24,13,53,21.60
2015,08,24,13,54,21.70
2015,08,24,13,55,21.70
2015,08,24,13,56,21.80
2015,08,24,13,57,21.80
2015,08,24,13,58,21.90
2015,08,24,13,59,21.90
2015,08,24,14,00,21.90
2015,08,24,14,01,21.90
2015,08,24,14,02,22.00
2015,08,24,14,03,22.00
2015,08,24,14,04,22.00
2015,08,24,14,05,22.00
2015,08,24,14,06,22.00
2015,08,24,14,07,22.00
2015,08,24,14,08,22.00
2015,08,24,14,09,22.00
2015,08,24,14,10,22.00
2015,08,24,14,11,22.10
2015,08,24,14,12,22.10
2015,08,24,14,13,22.10
2015,08,24,14,14,22.10
2015,08,24,14,15,22.10
2015,08,24,14,16,22.10
2015,08,24,14,17,22.20
2015,08,24,14,18,22.20
2015,08,24,14,19,22.20
2015,08,24,14,20,22.20
2015,08,24,14,21,22.10
2015,08,24,14,22,22.00
2015,08,24,14,23,22.00
2015,08,24,14,24,21.90
2015,08,24,14,25,21.90
2015,08,24,14,26,21.90
2015,08,24,14,27,21.90
2015,08,24,14,28,21.80
2015,08,24,14,29,21.70
2015,08,24,14,30,21.70
2015,08,24,14,31,21.70
2015,08,24,14,32,21.60
2015,08,24,14,33,21.60
2015,08,24,14,34,21.60
2015,08,24,14,35,21.60
2015,08,24,14,36,21.70
2015,08,24,14,37,21.70
2015,08,24,14,38,21.70
2015,08,24,14,39,21.70
2015,08,24,14,40,21.70
2015,08,24,14,41,21.80
2015,08,24,14,42,21.90
2015,08,24,14,43,22.00
2015,08,24,14,44,22.10
2015,08,24,14,45,22.20
2015,08,24,14,46,22.30
2015,08,24,14,47,22.30
2015,08,24,14,48,22.40
2015,08,24,14,49,22.40
2015,08,24,14,50,22.30
2015,08,24,14,51,22.30
2015,08,24,14,52,22.30
2015,08,24,14,53,22.30
2015,08,24,14,54,22.30
2015,08,24,14,55,22.20
2015,08,24,14,56,22.20
2015,08,24,14,57,22.20
2015,08,24,14,58,22.20
2015,08,24,14,59,22.20
2015,08,24,15,00,22.20
2015,08,24,15,01,22.20
2015,08,24,15,02,22.20
2015,08,24,15,03,22.20
2015,08,24,15,04,22.20
2015,08,24,15,05,22.20
2015,08,24,15,06,22.20
2015,08,24,15,07,22.30
2015,08,24,15,08,22.30
2015,08,24,15,09,22.30
2015,08,24,15,10,22.40
2015,08,24,15,11,22.50
2015,08,24,15,12,22.50
2015,08,24,15,13,22.60
2015,08,24,15,14,22.70
2015,08,24,15,15,22.80
2015,08,24,15,16,22.80
2015,08,24,15,17,22.80
2015,08,24,15,18,22.80
2015,08,24,15,19,22.80
2015,08,24,15,20,22.80
2015,08,24,15,21,22.90
2015,08,24,15,22,22.90
2015,08,24,15,23,22.90
2015,08,24,15,24,22.90
2015,08,24,15,25,23.00
2015,08,24,15,26,23.00
2015,08,24,15,27,23.10
2015,08,24,15,28,23.00
2015,08,24,15,29,23.00
2015,08,24,15,30,23.00
2015,08,24,15,31,23.10
2015,08,24,15,32,23.00
2015,08,24,15,33,23.00
2015,08,24,15,34,23.00
2015,08,24,15,35,23.10
2015,08,24,15,36,23.10
2015,08,24,15,37,23.20
2015,08,24,15,38,23.20
2015,08,24,15,39,23.20
2015,08,24,15,40,23.30
2015,08,24,15,41,23.30
2015,08,24,15,42,23.30
2015,08,24,15,43,23.40
2015,08,24,15,44,23.40
2015,08,24,15,45,23.40
2015,08,24,15,46,23.30
2015,08,24,15,47,23.30
2015,08,24,15,48,23.30
2015,08,24,15,49,23.40
2015,08,24,15,50,23.40
2015,08,24,15,51,23.30
2015,08,24,15,52,23.10
2015,08,24,15,53,23.00
2015,08,24,15,54,22.90
2015,08,24,15,55,22.80
2015,08,24,15,56,22.80
2015,08,24,15,57,22.70
2015,08,24,15,58,22.70
2015,08,24,15,59,22.70
2015,08,24,16,00,22.70
2015,08,24,16,01,22.70
2015,08,24,16,02,22.70
2015,08,24,16,03,22.60
2015,08,24,16,04,22.50
2015,08,24,16,05,22.40
2015,08,24,16,06,22.20
2015,08,24,16,07,22.10
2015,08,24,16,08,22.00
2015,08,24,16,09,21.90
2015,08,24,16,10,21.90
2015,08,24,16,11,21.90
2015,08,24,16,12,21.90
2015,08,24,16,13,22.00
2015,08,24,16,14,22.10
2015,08,24,16,15,22.10
2015,08,24,16,16,22.10
2015,08,24,16,17,22.10
2015,08,24,16,18,22.00
2015,08,24,16,19,21.90
2015,08,24,16,20,21.90
2015,08,24,16,21,21.90
2015,08,24,16,22,21.80
2015,08,24,16,23,21.70
2015,08,24,16,24,21.70
2015,08,24,16,25,21.60
2015,08,24,16,26,21.60
2015,08,24,16,27,21.60
2015,08,24,16,28,21.70
2015,08,24,16,29,21.70
2015,08,24,16,30,21.70
2015,08,24,16,31,21.70
2015,08,24,16,32,21.70
2015,08,24,16,33,21.60
2015,08,24,16,34,21.70
2015,08,24,16,35,21.70
2015,08,24,16,36,21.70
2015,08,24,16,37,21.70
2015,08,24,16,38,21.70
2015,08,24,16,39,21.80
2015,08,24,16,40,21.80
2015,08,24,16,41,21.90
2015,08,24,16,42,22.00
2015,08,24,16,43,22.10
2015,08,24,16,44,22.20
2015,08,24,16,45,22.20
2015,08,24,16,46,22.20
2015,08,24,16,47,22.20
2015,08,24,16,48,22.20
2015,08,24,16,49,22.20
2015,08,24,16,50,22.00
2015,08,24,16,51,22.00
2015,08,24,16,52,22.00
2015,08,24,16,53,22.00
2015,08,24,16,54,21.80
2015,08,24,16,55,21.80
2015,08,24,16,56,21.70
2015,08,24,16,57,21.70
2015,08,24,16,58,21.70
2015,08,24,16,59,21.60
2015,08,24,17,00,21.50
2015,08,24,17,01,21.40
2015,08,24,17,02,21.40
2015,08,24,17,03,21.40
2015,08,24,17,04,21.50
2015,08,24,17,05,21.60
2015,08,24,17,06,21.60
2015,08,24,17,07,21.60
2015,08,24,17,08,21.60
2015,08,24,17,09,21.60
2015,08,24,17,10,21.60
2015,08,24,17,11,21.50
2015,08,24,17,12,21.50
2015,08,24,17,13,21.50
2015,08,24,17,14,21.40
2015,08,24,17,15,21.30
2015,08,24,17,16,21.30
2015,08,24,17,17,21.30
2015,08,24,17,18,21.30
2015,08,24,17,19,21.30
2015,08,24,17,20,21.30
2015,08,24,17,21,21.30
2015,08,24,17,22,21.40
2015,08,24,17,23,21.30
2015,08,24,17,24,21.30
2015,08,24,17,25,21.30
2015,08,24,17,26,21.30
2015,08,24,17,27,21.40
2015,08,24,17,28,21.40
2015,08,24,17,29,21.40
2015,08,24,17,30,21.30